• In Latvia
  • List of Countries
  • For 7 days
  • Water Temperature
  • Satellite Maps
  • Weather Map
  • Weather Widgets
  • user-avatar
    Login

    Hourly Weather Durres

    Today, 19 August, Sunday

    Time Temperature Precipitation Wind Pressure Humidity
    00:00 +26°C° 0.1 mm 3 mps 760 mmHg 61%
    01:00 +25°C° 0 mm 3 mps 759 mmHg 60%
    02:00 +25°C° 0.1 mm 3 mps 759 mmHg 61%
    03:00 +25°C° 0.1 mm 3 mps 759 mmHg 62%
    04:00 +25°C° 0.1 mm 3 mps 759 mmHg 62%
    05:00 +26°C° 0.1 mm 3 mps 759 mmHg 60%
    06:00 +27°C° 0.1 mm 3 mps 759 mmHg 58%
    07:00 +29°C° 0.1 mm 3 mps 759 mmHg 56%
    08:00 +30°C° 0 mm 3 mps 759 mmHg 49%
    09:00 +32°C° 0 mm 2 mps 759 mmHg 42%
    10:00 +35°C° 0 mm 2 mps 759 mmHg 35%
    11:00 +36°C° 0 mm 2 mps 759 mmHg 35%
    12:00 +36°C° 0 mm 3 mps 759 mmHg 34%
    13:00 +37°C° 0 mm 3 mps 759 mmHg 34%
    14:00 +36°C° 0 mm 3 mps 759 mmHg 35%
    15:00 +36°C° 0 mm 3 mps 759 mmHg 36%
    16:00 +35°C° 0 mm 3 mps 759 mmHg 37%
    17:00 +34°C° 0 mm 3 mps 759 mmHg 42%
    18:00 +31°C° 0 mm 3 mps 759 mmHg 47%
    19:00 +29°C° 0 mm 3 mps 759 mmHg 52%
    20:00 +28°C° 0 mm 3 mps 759 mmHg 53%
    21:00 +27°C° 0 mm 3 mps 759 mmHg 54%
    22:00 +27°C° 0 mm 3 mps 759 mmHg 55%
    23:00 +26°C° 0 mm 3 mps 759 mmHg 54%

    Tomorrow, 20 August, Monday

    Time Temperature Precipitation Wind Pressure Humidity
    00:00 +26°C° 0 mm 3 mps 759 mmHg 54%
    01:00 +25°C° 0 mm 3 mps 759 mmHg 53%
    02:00 +25°C° 0 mm 3 mps 759 mmHg 52%
    03:00 +25°C° 0 mm 3 mps 759 mmHg 51%
    04:00 +24°C° 0 mm 3 mps 758 mmHg 50%
    05:00 +26°C° 0 mm 2 mps 759 mmHg 48%
    06:00 +27°C° 0 mm 2 mps 759 mmHg 47%
    07:00 +29°C° 0 mm 2 mps 759 mmHg 45%
    08:00 +31°C° 0 mm 2 mps 759 mmHg 40%
    09:00 +34°C° 0 mm 2 mps 759 mmHg 34%
    10:00 +36°C° 0 mm 2 mps 759 mmHg 28%
    11:00 +37°C° 0 mm 2 mps 759 mmHg 27%
    12:00 +37°C° 0 mm 3 mps 758 mmHg 26%
    13:00 +38°C° 0 mm 4 mps 758 mmHg 26%
    14:00 +37°C° 0 mm 4 mps 758 mmHg 30%
    15:00 +35°C° 0 mm 4 mps 758 mmHg 34%
    16:00 +34°C° 0 mm 5 mps 758 mmHg 38%
    17:00 +32°C° 0 mm 4 mps 758 mmHg 42%
    18:00 +30°C° 0 mm 4 mps 758 mmHg 46%
    19:00 +29°C° 0 mm 4 mps 758 mmHg 50%
    20:00 +28°C° 0 mm 4 mps 758 mmHg 52%
    21:00 +27°C° 0 mm 3 mps 758 mmHg 54%
    22:00 +26°C° 0 mm 3 mps 759 mmHg 56%
    23:00 +26°C° 0.1 mm 3 mps 759 mmHg 57%

    Day after tomorrow, 21 August, Tuesday

    Time Temperature Precipitation Wind Pressure Humidity
    00:00 +26°C° 0.1 mm 3 mps 759 mmHg 58%
    01:00 +25°C° 0.1 mm 3 mps 759 mmHg 59%
    02:00 +25°C° 0.2 mm 3 mps 758 mmHg 59%
    03:00 +25°C° 0.2 mm 3 mps 758 mmHg 60%
    04:00 +24°C° 0.2 mm 3 mps 758 mmHg 60%
    05:00 +26°C° 0.1 mm 3 mps 759 mmHg 57%
    06:00 +27°C° 0.1 mm 3 mps 759 mmHg 55%
    07:00 +29°C° 0.1 mm 3 mps 759 mmHg 52%
    08:00 +31°C° 0 mm 2 mps 759 mmHg 45%
    09:00 +34°C° 0 mm 2 mps 759 mmHg 38%
    10:00 +35°C° 0 mm 1 mps 759 mmHg 32%
    11:00 +36°C° 0 mm 2 mps 759 mmHg 31%
    12:00 +37°C° 0 mm 3 mps 759 mmHg 29%
    13:00 +38°C° 0 mm 3 mps 759 mmHg 28%
    14:00 +36°C° 0 mm 3 mps 759 mmHg 32%
    15:00 +35°C° 0 mm 4 mps 758 mmHg 36%
    16:00 +34°C° 0 mm 4 mps 758 mmHg 40%
    17:00 +31°C° 0 mm 3 mps 758 mmHg 46%
    18:00 +30°C° 0 mm 3 mps 759 mmHg 51%
    19:00 +28°C° 0 mm 3 mps 759 mmHg 57%
    20:00 +27°C° 0 mm 2 mps 759 mmHg 57%
    21:00 +27°C° 0 mm 2 mps 760 mmHg 57%
    22:00 +26°C° 0 mm 2 mps 760 mmHg 57%
    23:00 +26°C° 0 mm 2 mps 760 mmHg 57%

    22 August, Wednesday

    Time Temperature Precipitation Wind Pressure Humidity
    00:00 +26°C° 0 mm 2 mps 760 mmHg 56%
    01:00 +26°C° 0 mm 2 mps 760 mmHg 55%
    02:00 +25°C° 0 mm 2 mps 760 mmHg 55%
    03:00 +25°C° 0 mm 2 mps 760 mmHg 56%
    04:00 +25°C° 0 mm 2 mps 759 mmHg 56%
    05:00 +26°C° 0 mm 2 mps 760 mmHg 54%
    06:00 +28°C° 0 mm 2 mps 760 mmHg 53%
    07:00 +29°C° 0 mm 2 mps 760 mmHg 51%
    08:00 +31°C° 0 mm 2 mps 760 mmHg 44%
    09:00 +34°C° 0 mm 2 mps 760 mmHg 38%
    10:00 +36°C° 0 mm 2 mps 760 mmHg 32%
    11:00 +37°C° 0 mm 2 mps 760 mmHg 32%
    12:00 +37°C° 0 mm 3 mps 759 mmHg 33%
    13:00 +37°C° 0 mm 4 mps 759 mmHg 34%
    14:00 +36°C° 0.1 mm 4 mps 759 mmHg 37%
    15:00 +35°C° 0.1 mm 4 mps 759 mmHg 39%
    16:00 +34°C° 0.1 mm 5 mps 759 mmHg 42%
    17:00 +33°C° 0 mm 4 mps 759 mmHg 45%
    18:00 +30°C° 0 mm 4 mps 759 mmHg 49%
    19:00 +29°C° 0 mm 3 mps 759 mmHg 52%
    20:00 +28°C° 0 mm 3 mps 759 mmHg 55%
    21:00 +27°C° 0 mm 3 mps 760 mmHg 57%
    22:00 +26°C° 0 mm 3 mps 760 mmHg 59%
    23:00 +26°C° 0.1 mm 3 mps 760 mmHg 59%

    23 August, Thursday

    Time Temperature Precipitation Wind Pressure Humidity
    00:00 +26°C° 0.1 mm 3 mps 760 mmHg 59%
    01:00 +25°C° 0.1 mm 3 mps 759 mmHg 59%
    02:00 +25°C° 0.2 mm 2 mps 759 mmHg 58%
    03:00 +25°C° 0.2 mm 2 mps 759 mmHg 56%
    04:00 +24°C° 0.2 mm 2 mps 759 mmHg 55%
    05:00 +26°C° 0 mm 2 mps 759 mmHg 52%
    06:00 +27°C° 0 mm 2 mps 759 mmHg 49%
    07:00 +29°C° 0 mm 2 mps 759 mmHg 46%
    08:00 +31°C° 0 mm 2 mps 759 mmHg 39%
    09:00 +33°C° 0 mm 1 mps 759 mmHg 32%
    10:00 +36°C° 0 mm 1 mps 759 mmHg 26%
    11:00 +37°C° 0 mm 2 mps 759 mmHg 25%
    12:00 +37°C° 0 mm 3 mps 758 mmHg 25%
    13:00 +38°C° 0 mm 3 mps 758 mmHg 25%
    14:00 +37°C° 0 mm 4 mps 758 mmHg 28%
    15:00 +36°C° 0 mm 4 mps 758 mmHg 32%
    16:00 +35°C° 0 mm 4 mps 757 mmHg 36%
    17:00 +33°C° 0 mm 3 mps 758 mmHg 41%
    18:00 +30°C° 0 mm 3 mps 758 mmHg 46%
    19:00 +28°C° 0 mm 2 mps 758 mmHg 51%
    20:00 +28°C° 0 mm 2 mps 758 mmHg 53%
    21:00 +27°C° 0 mm 1 mps 758 mmHg 55%
    22:00 +26°C° 0 mm 1 mps 758 mmHg 57%
    23:00 +26°C° 0.1 mm 1 mps 758 mmHg 58%

    24 August, Friday

    Time Temperature Precipitation Wind Pressure Humidity
    00:00 +25°C° 0.1 mm 1 mps 758 mmHg 58%
    01:00 +25°C° 0.1 mm 1 mps 758 mmHg 59%
    02:00 +25°C° 0 mm 1 mps 758 mmHg 59%
    03:00 +24°C° 0 mm 1 mps 758 mmHg 58%
    04:00 +24°C° 0 mm 1 mps 757 mmHg 57%
    05:00 +26°C° 0 mm 1 mps 757 mmHg 54%
    06:00 +27°C° 0 mm 2 mps 757 mmHg 51%
    07:00 +28°C° 0 mm 2 mps 757 mmHg 48%
    08:00 +30°C° 0 mm 2 mps 757 mmHg 43%
    09:00 +32°C° 0 mm 2 mps 757 mmHg 38%
    10:00 +35°C° 0 mm 2 mps 757 mmHg 33%
    11:00 +35°C° 0 mm 2 mps 757 mmHg 32%
    12:00 +36°C° 0 mm 3 mps 757 mmHg 32%
    13:00 +36°C° 0 mm 3 mps 757 mmHg 32%
    14:00 +36°C° 0 mm 3 mps 756 mmHg 35%
    15:00 +35°C° 0 mm 3 mps 756 mmHg 38%
    16:00 +34°C° 0 mm 2 mps 756 mmHg 42%
    17:00 +31°C° 0 mm 2 mps 756 mmHg 50%
    18:00 +29°C° 0 mm 1 mps 756 mmHg 59%
    19:00 +27°C° 0 mm 1 mps 757 mmHg 67%
    20:00 +26°C° 0 mm 1 mps 757 mmHg 68%
    21:00 +26°C° 0 mm 2 mps 757 mmHg 69%
    22:00 +25°C° 0 mm 2 mps 757 mmHg 69%
    23:00 +25°C° 0 mm 2 mps 757 mmHg 68%
    Show more